QPF
0.02 0.03 0.02 0.02 0.02 0.04 0.05 0.08 0.11 0.17 0.18 0.17 0.14 0.12 0.11 0.13 0.12 0.11 0.07 0.04 0.05 0.06 0.10 0.11 0.10 0.09 0.08 0.08 0.08 0.08 0.08 0.09 0.08 0.06 0.05 0.05 0.04 0.04 0.06 0.07 0.07 0.08 0.09
0.05 0.07 0.07 0.07 0.07 0.09 0.12 0.16 0.22 0.25 0.21 0.19 0.14 0.13 0.13 0.13 0.11 0.11 0.09 0.07 0.06 0.04 0.06 0.09 0.10 0.09 0.09 0.09 0.08 0.07 0.07 0.07 0.06 0.04 0.03 0.03 0.03 0.03 0.05 0.07 0.07 0.07 0.07
0.09 0.09 0.08 0.09 0.12 0.14 0.15 0.16 0.20 0.25 0.19 0.16 0.12 0.14 0.14 0.11 0.09 0.09 0.10 0.09 0.05 0.03 0.03 0.04 0.05 0.06 0.07 0.07 0.07 0.07 0.05 0.04 0.04 0.03 0.02 0.02 0.02 0.02 0.02 0.04 0.05 0.05 0.05
0.14 0.13 0.10 0.09 0.14 0.16 0.16 0.18 0.21 0.24 0.20 0.17 0.14 0.12 0.11 0.10 0.08 0.07 0.07 0.07 0.05 0.02 0.01 0.01 0.01 0.02 0.02 0.04 0.05 0.07 0.06 0.03 0.03 0.03 0.02 0.01 0.01 0.02 0.02 0.02 0.02 0.02 0.02
0.13 0.13 0.10 0.08 0.14 0.14 0.11 0.13 0.19 0.24 0.24 0.23 0.21 0.15 0.10 0.09 0.06 0.05 0.04 0.03 0.03 0.03 0.01 0.01 0.01 0.01 0.00 0.01 0.03 0.05 0.06 0.04 0.03 0.03 0.03 0.03 0.02 0.02 0.02 0.01 0.01 0.01 0.01
0.09 0.10 0.08 0.08 0.12 0.12 0.10 0.13 0.18 0.23 0.21 0.23 0.22 0.15 0.12 0.09 0.07 0.06 0.04 0.02 0.02 0.01 0.01 0.01 0.01 0.00 0.00 0.00 0.01 0.02 0.05 0.05 0.04 0.03 0.04 0.05 0.05 0.03 0.02 0.01 0.01 0.01 0.00
0.03 0.04 0.05 0.06 0.09 0.10 0.11 0.14 0.21 0.25 0.22 0.24 0.26 0.18 0.12 0.10 0.08 0.05 0.04 0.02 0.02 0.01 0.01 0.01 0.01 0.00 0.00 0.00 0.00 0.01 0.02 0.05 0.05 0.04 0.05 0.06 0.08 0.07 0.04 0.02 0.01 0.00 0.00
0.00 0.01 0.01 0.03 0.04 0.05 0.08 0.11 0.15 0.17 0.16 0.21 0.21 0.20 0.14 0.10 0.07 0.06 0.05 0.05 0.04 0.03 0.02 0.01 0.01 0.01 0.01 0.01 0.02 0.01 0.01 0.03 0.05 0.07 0.06 0.05 0.07 0.07 0.05 0.03 0.01 0.01 0.00
0.00 0.00 0.00 0.01 0.02 0.02 0.02 0.04 0.07 0.09 0.10 0.13 0.14 0.17 0.15 0.10 0.11 0.10 0.09 0.06 0.04 0.03 0.02 0.02 0.01 0.01 0.01 0.02 0.03 0.04 0.03 0.04 0.04 0.06 0.08 0.07 0.06 0.06 0.05 0.05 0.04 0.02 0.01
0.00 0.00 0.00 0.00 0.01 0.01 0.01 0.01 0.03 0.04 0.06 0.06 0.07 0.08 0.10 0.13 0.13 0.10 0.08 0.04 0.02 0.02 0.01 0.02 0.02 0.02 0.03 0.04 0.06 0.07 0.07 0.07 0.05 0.05 0.06 0.07 0.05 0.04 0.04 0.06 0.10 0.08 0.04
0.00 0.00 0.00 0.00 0.01 0.01 0.01 0.02 0.02 0.03 0.03 0.03 0.04 0.05 0.06 0.08 0.08 0.07 0.05 0.04 0.03 0.02 0.02 0.03 0.04 0.04 0.04 0.04 0.06 0.06 0.07 0.08 0.08 0.05 0.04 0.04 0.05 0.05 0.05 0.08 0.15 0.18 0.14
0.00 0.00 0.00 0.00 0.00 0.01 0.01 0.02 0.02 0.02 0.03 0.03 0.04 0.05 0.05 0.04 0.03 0.04 0.03 0.04 0.05 0.04 0.04 0.05 0.06 0.06 0.04 0.05 0.04 0.03 0.04 0.05 0.06 0.05 0.04 0.04 0.05 0.05 0.07 0.12 0.21 0.27 0.27
0.00 0.00 0.00 0.00 0.00 0.01 0.01 0.02 0.02 0.03 0.03 0.04 0.04 0.05 0.05 0.05 0.06 0.07 0.06 0.06 0.07 0.07 0.08 0.08 0.07 0.05 0.03 0.04 0.02 0.01 0.01 0.01 0.02 0.03 0.04 0.04 0.05 0.06 0.10 0.14 0.18 0.23 0.28
0.00 0.00 0.00 0.00 0.00 0.00 0.01 0.01 0.02 0.03 0.04 0.05 0.05 0.06 0.07 0.07 0.07 0.07 0.08 0.09 0.08 0.09 0.11 0.10 0.07 0.06 0.05 0.03 0.01 0.00 0.00 0.00 0.00 0.01 0.01 0.02 0.03 0.05 0.08 0.13 0.18 0.20 0.23
0.00 0.00 0.00 0.00 0.00 0.00 0.00 0.01 0.02 0.02 0.04 0.05 0.06 0.08 0.09 0.09 0.09 0.09 0.10 0.11 0.11 0.11 0.13 0.12 0.09 0.07 0.06 0.04 0.02 0.03 0.01 0.00 0.00 0.00 0.00 0.01 0.02 0.02 0.03 0.07 0.13 0.16 0.20
0.00 0.00 0.00 0.00 0.00 0.00 0.00 0.01 0.02 0.03 0.04 0.05 0.07 0.07 0.08 0.09 0.11 0.11 0.12 0.14 0.16 0.16 0.14 0.10 0.09 0.08 0.06 0.04 0.03 0.04 0.01 0.00 0.00 0.00 0.00 0.00 0.01 0.01 0.01 0.02 0.04 0.08 0.13
0.00 0.00 0.00 0.00 0.00 0.00 0.01 0.01 0.02 0.04 0.04 0.06 0.07 0.08 0.09 0.10 0.12 0.14 0.15 0.16 0.18 0.19 0.14 0.09 0.08 0.09 0.07 0.05 0.05 0.04 0.03 0.02 0.00 0.00 0.00 0.00 0.00 0.00 0.00 0.00 0.01 0.02 0.05
0.00 0.00 0.00 0.00 0.00 0.00 0.01 0.01 0.02 0.03 0.04 0.06 0.07 0.09 0.10 0.12 0.14 0.15 0.16 0.16 0.16 0.17 0.15 0.12 0.09 0.08 0.06 0.05 0.04 0.03 0.03 0.01 0.00 0.00 0.00 0.00 0.00 0.00 0.00 0.00 0.00 0.00 0.01
0.01 0.01 0.00 0.00 0.00 0.00 0.01 0.01 0.02 0.03 0.04 0.05 0.07 0.09 0.11 0.13 0.14 0.14 0.15 0.15 0.14 0.14 0.14 0.13 0.11 0.08 0.06 0.04 0.03 0.02 0.02 0.01 0.00 0.00 0.00 0.00 0.00 0.00 0.00 0.00 0.00 0.00 0.00
0.01 0.01 0.01 0.00 0.00 0.00 0.00 0.01 0.01 0.01 0.03 0.04 0.06 0.09 0.12 0.14 0.15 0.15 0.15 0.15 0.15 0.14 0.12 0.13 0.11 0.08 0.06 0.04 0.03 0.02 0.01 0.01 0.00 0.00 0.00 0.00 0.00 0.00 0.00 0.00 0.00 0.00 0.00
0.01 0.01 0.01 0.01 0.01 0.00 0.00 0.01 0.01 0.01 0.02 0.03 0.05 0.09 0.13 0.16 0.18 0.17 0.16 0.18 0.19 0.16 0.12 0.10 0.08 0.07 0.05 0.04 0.03 0.01 0.01 0.00 0.00 0.00 0.00 0.00 0.00 0.00 0.00 0.00 0.00 0.00 0.00
0.02 0.02 0.02 0.02 0.01 0.01 0.00 0.00 0.00 0.01 0.01 0.03 0.04 0.07 0.12 0.14 0.16 0.17 0.16 0.16 0.17 0.16 0.12 0.07 0.06 0.05 0.04 0.03 0.02 0.01 0.00 0.00 0.00 0.00 0.00 0.00 0.00 0.00 0.00 0.00 0.00 0.00 0.00
0.03 0.03 0.03 0.03 0.02 0.02 0.00 0.00 0.00 0.00 0.01 0.01 0.02 0.03 0.08 0.13 0.12 0.11 0.10 0.09 0.08 0.07 0.07 0.06 0.04 0.03 0.02 0.01 0.01 0.00 0.00 0.00 0.00 0.00 0.00 0.00 0.00 0.00 0.00 0.00 0.00 0.00 0.00
0.04 0.04 0.04 0.04 0.04 0.03 0.01 0.00 0.00 0.00 0.01 0.01 0.01 0.02 0.04 0.05 0.05 0.05 0.04 0.03 0.03 0.02 0.03 0.03 0.02 0.01 0.01 0.01 0.00 0.00 0.00 0.00 0.00 0.00 0.00 0.00 0.00 0.00 0.00 0.00 0.00 0.00 0.00
0.06 0.07 0.08 0.07 0.07 0.06 0.02 0.00 0.01 0.01 0.02 0.02 0.02 0.02 0.02 0.01 0.01 0.02 0.02 0.02 0.01 0.01 0.01 0.01 0.00 0.00 0.00 0.00 0.00 0.00 0.00 0.00 0.00 0.00 0.00 0.00 0.00 0.00 0.00 0.00 0.00 0.00 0.00
0.08 0.10 0.10 0.10 0.10 0.09 0.06 0.01 0.01 0.02 0.02 0.02 0.02 0.02 0.02 0.01 0.01 0.01 0.02 0.02 0.01 0.00 0.00 0.00 0.00 0.00 0.00 0.00 0.00 0.00 0.00 0.00 0.00 0.00 0.00 0.00 0.00 0.00 0.00 0.00 0.00 0.00 0.00
MSLP
1012.68 1012.67 1012.63 1012.56 1012.46 1012.35 1012.24 1012.15 1012.08 1012.04 1012.01 1011.99 1011.96 1011.93 1011.91 1011.90 1011.92 1011.98 1012.09 1012.24 1012.41 1012.59 1012.76 1012.90 1013.01 1013.10 1013.17 1013.25 1013.35 1013.49 1013.68 1013.92 1014.20 1014.50 1014.83 1015.15 1015.47 1015.78 1016.10 1016.40 1016.71 1017.01 1017.31
1012.49 1012.49 1012.46 1012.38 1012.25 1012.10 1011.94 1011.80 1011.68 1011.60 1011.56 1011.55 1011.56 1011.57 1011.59 1011.61 1011.63 1011.67 1011.73 1011.81 1011.90 1012.00 1012.11 1012.20 1012.29 1012.37 1012.45 1012.54 1012.66 1012.81 1013.00 1013.23 1013.50 1013.80 1014.11 1014.44 1014.76 1015.09 1015.42 1015.74 1016.06 1016.37 1016.69
1012.34 1012.35 1012.31 1012.22 1012.07 1011.87 1011.67 1011.48 1011.33 1011.23 1011.20 1011.21 1011.26 1011.32 1011.37 1011.41 1011.44 1011.44 1011.43 1011.42 1011.42 1011.43 1011.46 1011.50 1011.55 1011.62 1011.70 1011.80 1011.93 1012.08 1012.27 1012.49 1012.74 1013.02 1013.32 1013.64 1013.97 1014.31 1014.66 1015.00 1015.34 1015.68 1016.01
1012.18 1012.19 1012.14 1012.02 1011.84 1011.61 1011.36 1011.14 1010.97 1010.87 1010.85 1010.90 1010.99 1011.09 1011.18 1011.23 1011.24 1011.20 1011.12 1011.02 1010.93 1010.84 1010.79 1010.77 1010.79 1010.83 1010.91 1011.02 1011.14 1011.29 1011.47 1011.67 1011.90 1012.16 1012.45 1012.76 1013.10 1013.45 1013.82 1014.19 1014.56 1014.92 1015.29
1012.02 1012.01 1011.93 1011.78 1011.55 1011.28 1011.00 1010.74 1010.55 1010.46 1010.45 1010.53 1010.66 1010.80 1010.92 1010.98 1010.97 1010.88 1010.73 1010.55 1010.37 1010.20 1010.08 1010.01 1009.99 1010.02 1010.09 1010.19 1010.31 1010.45 1010.61 1010.79 1010.99 1011.23 1011.51 1011.82 1012.16 1012.53 1012.92 1013.32 1013.72 1014.13 1014.54
1011.84 1011.80 1011.69 1011.50 1011.23 1010.91 1010.59 1010.30 1010.09 1009.99 1009.99 1010.09 1010.24 1010.40 1010.53 1010.59 1010.55 1010.43 1010.23 1009.98 1009.73 1009.51 1009.33 1009.22 1009.18 1009.20 1009.26 1009.36 1009.47 1009.59 1009.73 1009.88 1010.06 1010.28 1010.53 1010.84 1011.18 1011.57 1011.98 1012.41 1012.85 1013.30 1013.76
1011.69 1011.62 1011.47 1011.23 1010.92 1010.56 1010.19 1009.87 1009.63 1009.50 1009.49 1009.57 1009.72 1009.88 1010.00 1010.04 1009.99 1009.83 1009.60 1009.32 1009.03 1008.78 1008.58 1008.45 1008.40 1008.42 1008.47 1008.56 1008.66 1008.76 1008.88 1009.00 1009.16 1009.35 1009.59 1009.88 1010.22 1010.60 1011.03 1011.48 1011.95 1012.44 1012.93
1011.59 1011.49 1011.31 1011.04 1010.69 1010.29 1009.88 1009.51 1009.22 1009.05 1008.99 1009.04 1009.14 1009.27 1009.36 1009.38 1009.30 1009.13 1008.89 1008.61 1008.32 1008.07 1007.88 1007.76 1007.72 1007.74 1007.79 1007.87 1007.96 1008.04 1008.13 1008.23 1008.35 1008.51 1008.72 1008.99 1009.31 1009.68 1010.10 1010.55 1011.03 1011.53 1012.05
1011.55 1011.45 1011.26 1010.97 1010.60 1010.17 1009.72 1009.30 1008.95 1008.70 1008.57 1008.54 1008.57 1008.63 1008.67 1008.65 1008.56 1008.39 1008.16 1007.91 1007.66 1007.45 1007.30 1007.22 1007.20 1007.23 1007.29 1007.37 1007.44 1007.50 1007.56 1007.62 1007.71 1007.83 1008.01 1008.24 1008.52 1008.85 1009.23 1009.65 1010.10 1010.59 1011.11
1011.56 1011.48 1011.29 1011.01 1010.63 1010.18 1009.70 1009.23 1008.81 1008.48 1008.25 1008.11 1008.05 1008.02 1007.99 1007.93 1007.83 1007.68 1007.49 1007.29 1007.11 1006.98 1006.89 1006.87 1006.89 1006.95 1007.02 1007.09 1007.14 1007.18 1007.21 1007.24 1007.29 1007.37 1007.49 1007.67 1007.89 1008.16 1008.47 1008.83 1009.23 1009.67 1010.16
1011.57 1011.50 1011.35 1011.09 1010.73 1010.28 1009.77 1009.26 1008.77 1008.34 1008.01 1007.75 1007.58 1007.45 1007.36 1007.26 1007.15 1007.04 1006.92 1006.81 1006.72 1006.68 1006.69 1006.74 1006.82 1006.91 1006.99 1007.05 1007.09 1007.10 1007.09 1007.09 1007.10 1007.13 1007.20 1007.32 1007.47 1007.66 1007.88 1008.15 1008.47 1008.84 1009.27
1011.49 1011.46 1011.35 1011.13 1010.79 1010.35 1009.84 1009.29 1008.74 1008.23 1007.79 1007.43 1007.15 1006.93 1006.77 1006.65 1006.56 1006.49 1006.46 1006.45 1006.49 1006.56 1006.67 1006.80 1006.94 1007.07 1007.17 1007.23 1007.25 1007.24 1007.20 1007.17 1007.14 1007.13 1007.15 1007.20 1007.28 1007.38 1007.51 1007.68 1007.90 1008.17 1008.52
1011.27 1011.27 1011.19 1011.01 1010.71 1010.30 1009.79 1009.23 1008.64 1008.06 1007.54 1007.09 1006.72 1006.43 1006.23 1006.10 1006.04 1006.04 1006.10 1006.22 1006.38 1006.57 1006.79 1007.01 1007.21 1007.37 1007.49 1007.55 1007.56 1007.54 1007.49 1007.43 1007.38 1007.34 1007.32 1007.32 1007.33 1007.36 1007.41 1007.48 1007.59 1007.77 1008.03
1010.89 1010.90 1010.84 1010.69 1010.42 1010.04 1009.55 1008.99 1008.38 1007.77 1007.19 1006.68 1006.26 1005.94 1005.72 1005.61 1005.59 1005.68 1005.84 1006.08 1006.36 1006.67 1006.99 1007.29 1007.55 1007.75 1007.88 1007.95 1007.96 1007.93 1007.88 1007.81 1007.76 1007.71 1007.67 1007.65 1007.62 1007.60 1007.58 1007.57 1007.61 1007.70 1007.86
1010.37 1010.36 1010.31 1010.17 1009.92 1009.57 1009.11 1008.56 1007.96 1007.34 1006.75 1006.22 1005.78 1005.46 1005.25 1005.18 1005.23 1005.40 1005.66 1006.00 1006.39 1006.80 1007.20 1007.57 1007.88 1008.11 1008.26 1008.34 1008.36 1008.34 1008.30 1008.25 1008.20 1008.17 1008.14 1008.12 1008.09 1008.05 1008.00 1007.96 1007.94 1007.97 1008.06
1009.79 1009.74 1009.65 1009.50 1009.27 1008.94 1008.51 1007.99 1007.42 1006.83 1006.26 1005.75 1005.34 1005.04 1004.88 1004.86 1004.98 1005.22 1005.57 1005.99 1006.46 1006.95 1007.41 1007.82 1008.16 1008.41 1008.58 1008.67 1008.71 1008.70 1008.68 1008.66 1008.65 1008.65 1008.66 1008.67 1008.67 1008.65 1008.62 1008.58 1008.54 1008.54 1008.58
1009.24 1009.12 1008.99 1008.82 1008.58 1008.27 1007.86 1007.39 1006.87 1006.33 1005.81 1005.36 1005.00 1004.76 1004.66 1004.70 1004.88 1005.19 1005.60 1006.08 1006.59 1007.10 1007.59 1008.01 1008.36 1008.62 1008.80 1008.90 1008.95 1008.97 1008.98 1008.99 1009.03 1009.08 1009.14 1009.21 1009.27 1009.31 1009.32 1009.32 1009.31 1009.32 1009.35
1008.79 1008.60 1008.43 1008.23 1007.98 1007.68 1007.31 1006.88 1006.42 1005.95 1005.51 1005.13 1004.85 1004.69 1004.66 1004.76 1004.99 1005.34 1005.78 1006.27 1006.79 1007.30 1007.77 1008.18 1008.51 1008.76 1008.93 1009.03 1009.09 1009.13 1009.17 1009.22 1009.30 1009.40 1009.53 1009.66 1009.79 1009.90 1009.99 1010.06 1010.11 1010.15 1010.19
1008.50 1008.25 1008.03 1007.80 1007.55 1007.26 1006.92 1006.55 1006.15 1005.76 1005.41 1005.12 1004.93 1004.85 1004.89 1005.05 1005.32 1005.69 1006.13 1006.60 1007.09 1007.56 1007.98 1008.34 1008.63 1008.85 1009.00 1009.09 1009.15 1009.20 1009.26 1009.34 1009.46 1009.60 1009.78 1009.97 1010.17 1010.36 1010.54 1010.69 1010.80 1010.90 1010.98
1008.32 1008.05 1007.80 1007.56 1007.31 1007.03 1006.73 1006.40 1006.08 1005.77 1005.51 1005.32 1005.22 1005.23 1005.33 1005.54 1005.84 1006.20 1006.62 1007.05 1007.48 1007.88 1008.23 1008.53 1008.77 1008.94 1009.05 1009.13 1009.18 1009.23 1009.30 1009.39 1009.52 1009.69 1009.90 1010.14 1010.39 1010.65 1010.89 1011.11 1011.30 1011.46 1011.58
1008.20 1007.93 1007.69 1007.45 1007.21 1006.95 1006.68 1006.41 1006.15 1005.93 1005.76 1005.66 1005.65 1005.74 1005.91 1006.16 1006.47 1006.82 1007.20 1007.58 1007.93 1008.26 1008.54 1008.76 1008.93 1009.05 1009.13 1009.19 1009.22 1009.26 1009.32 1009.41 1009.54 1009.71 1009.93 1010.18 1010.46 1010.75 1011.05 1011.32 1011.57 1011.77 1011.93
1008.05 1007.81 1007.59 1007.37 1007.14 1006.91 1006.68 1006.46 1006.26 1006.12 1006.04 1006.03 1006.11 1006.27 1006.49 1006.78 1007.11 1007.45 1007.79 1008.11 1008.41 1008.66 1008.86 1009.02 1009.14 1009.21 1009.26 1009.29 1009.32 1009.35 1009.39 1009.47 1009.58 1009.73 1009.93 1010.17 1010.44 1010.74 1011.05 1011.35 1011.63 1011.86 1012.04
1007.77 1007.58 1007.40 1007.21 1007.01 1006.81 1006.62 1006.45 1006.31 1006.24 1006.24 1006.31 1006.47 1006.70 1006.98 1007.31 1007.65 1007.98 1008.30 1008.58 1008.83 1009.02 1009.17 1009.29 1009.37 1009.42 1009.45 1009.47 1009.49 1009.51 1009.55 1009.60 1009.69 1009.81 1009.97 1010.18 1010.42 1010.69 1010.99 1011.28 1011.56 1011.79 1011.97
1007.31 1007.18 1007.04 1006.89 1006.73 1006.57 1006.42 1006.29 1006.22 1006.21 1006.28 1006.43 1006.65 1006.95 1007.28 1007.65 1008.01 1008.35 1008.66 1008.92 1009.14 1009.31 1009.44 1009.53 1009.60 1009.65 1009.69 1009.72 1009.75 1009.78 1009.81 1009.85 1009.91 1010.00 1010.12 1010.27 1010.47 1010.69 1010.94 1011.19 1011.44 1011.65 1011.81
1006.69 1006.61 1006.52 1006.41 1006.28 1006.16 1006.05 1005.98 1005.96 1006.01 1006.15 1006.36 1006.65 1007.00 1007.38 1007.78 1008.17 1008.53 1008.84 1009.11 1009.32 1009.49 1009.62 1009.73 1009.81 1009.89 1009.95 1010.01 1010.07 1010.12 1010.16 1010.21 1010.25 1010.31 1010.39 1010.49 1010.62 1010.79 1010.97 1011.17 1011.36 1011.52 1011.65
1005.95 1005.91 1005.86 1005.79 1005.71 1005.64 1005.58 1005.56 1005.60 1005.71 1005.91 1006.18 1006.51 1006.90 1007.32 1007.75 1008.16 1008.54 1008.87 1009.15 1009.38 1009.57 1009.72 1009.86 1009.98 1010.10 1010.21 1010.32 1010.41 1010.50 1010.57 1010.63 1010.67 1010.72 1010.76 1010.82 1010.90 1011.00 1011.12 1011.24 1011.37 1011.47 1011.55
Thickness
5766 5766 5765 5763 5763 5765 5765 5763 5762 5762 5760 5760 5759 5759 5759 5759 5759 5758 5758 5757 5756 5755 5754 5754 5754 5753 5753 5753 5752 5752 5752 5750 5749 5747 5744 5742 5739 5737 5735 5734 5732 5731 5729
5760 5759 5759 5758 5759 5758 5758 5757 5757 5756 5756 5756 5755 5755 5754 5755 5755 5754 5754 5755 5754 5753 5752 5752 5752 5752 5752 5752 5752 5752 5752 5752 5750 5749 5747 5744 5742 5740 5737 5735 5734 5732 5731
5755 5754 5754 5754 5755 5753 5752 5752 5752 5750 5750 5751 5750 5750 5751 5750 5750 5750 5749 5749 5751 5751 5751 5750 5750 5750 5751 5751 5751 5751 5751 5751 5751 5750 5748 5746 5744 5742 5739 5737 5735 5734 5732
5751 5750 5750 5750 5750 5748 5748 5747 5746 5744 5744 5744 5743 5744 5744 5745 5744 5743 5744 5744 5744 5746 5748 5748 5747 5748 5748 5749 5749 5750 5750 5750 5750 5750 5749 5747 5746 5744 5741 5739 5737 5735 5733
5748 5746 5746 5746 5744 5744 5744 5743 5743 5739 5738 5737 5737 5736 5737 5738 5739 5739 5739 5739 5739 5740 5742 5744 5745 5745 5746 5747 5747 5748 5748 5749 5749 5749 5748 5747 5746 5745 5743 5741 5739 5737 5735
5743 5742 5742 5742 5740 5739 5738 5737 5735 5734 5733 5733 5731 5733 5734 5734 5736 5736 5735 5735 5735 5736 5738 5740 5742 5744 5744 5745 5745 5746 5747 5747 5748 5748 5747 5746 5746 5744 5743 5742 5740 5738 5736
5738 5736 5737 5736 5734 5733 5732 5731 5730 5729 5729 5729 5724 5724 5728 5732 5733 5733 5733 5733 5733 5734 5735 5735 5737 5740 5743 5743 5744 5745 5745 5745 5746 5746 5746 5745 5744 5743 5743 5741 5740 5738 5736
5732 5733 5730 5729 5729 5726 5725 5725 5723 5723 5724 5724 5718 5716 5717 5724 5729 5732 5731 5729 5730 5731 5731 5732 5733 5735 5736 5739 5743 5743 5742 5743 5743 5743 5743 5743 5742 5742 5741 5741 5740 5738 5736
5726 5724 5722 5722 5721 5720 5721 5719 5717 5716 5717 5718 5717 5712 5710 5715 5724 5728 5728 5728 5727 5726 5727 5729 5730 5731 5732 5734 5737 5738 5738 5739 5740 5740 5740 5739 5739 5739 5739 5739 5739 5737 5736
5721 5719 5717 5716 5714 5715 5714 5713 5715 5712 5709 5710 5712 5712 5713 5715 5711 5716 5721 5724 5724 5722 5724 5726 5727 5728 5728 5729 5730 5730 5731 5732 5734 5734 5734 5735 5735 5736 5736 5737 5738 5737 5735
5717 5715 5712 5710 5708 5708 5707 5706 5705 5704 5705 5705 5706 5707 5708 5709 5709 5707 5711 5717 5719 5721 5722 5721 5722 5723 5724 5723 5723 5723 5723 5724 5726 5727 5728 5729 5730 5731 5733 5735 5736 5736 5734
5714 5712 5707 5704 5702 5702 5701 5700 5699 5699 5699 5700 5701 5702 5702 5704 5707 5708 5708 5711 5712 5716 5716 5716 5715 5716 5716 5716 5715 5713 5714 5715 5717 5718 5719 5721 5722 5725 5729 5732 5734 5734 5733
5708 5705 5702 5698 5697 5696 5695 5695 5695 5694 5694 5694 5694 5697 5699 5702 5705 5706 5705 5707 5706 5708 5708 5707 5708 5708 5709 5708 5706 5704 5705 5706 5708 5709 5710 5712 5714 5718 5722 5726 5729 5731 5730
5702 5698 5695 5693 5692 5691 5691 5691 5691 5691 5691 5690 5691 5692 5693 5697 5699 5700 5700 5699 5697 5698 5698 5698 5700 5700 5700 5699 5696 5696 5696 5696 5697 5699 5700 5703 5705 5708 5712 5717 5721 5723 5724
5694 5692 5690 5688 5688 5687 5687 5686 5687 5686 5687 5687 5688 5688 5689 5692 5693 5695 5696 5695 5691 5688 5687 5688 5688 5689 5689 5688 5687 5688 5687 5685 5686 5688 5690 5692 5694 5697 5701 5705 5708 5711 5713
5686 5685 5684 5683 5683 5682 5682 5681 5682 5683 5683 5683 5683 5683 5684 5687 5688 5689 5689 5689 5687 5684 5680 5680 5679 5680 5680 5680 5678 5678 5676 5675 5675 5677 5678 5680 5683 5685 5688 5691 5695 5697 5699
5679 5678 5678 5677 5677 5677 5677 5677 5678 5678 5678 5679 5679 5679 5679 5680 5681 5682 5682 5681 5680 5678 5673 5670 5669 5669 5669 5669 5669 5669 5669 5669 5666 5665 5667 5669 5670 5672 5675 5677 5680 5682 5685
5672 5672 5671 5671 5671 5672 5672 5671 5671 5672 5673 5673 5674 5674 5674 5675 5674 5674 5674 5673 5672 5672 5667 5660 5658 5658 5658 5659 5659 5660 5661 5661 5658 5655 5657 5658 5658 5660 5662 5664 5666 5668 5671
5662 5664 5664 5664 5664 5665 5665 5665 5665 5665 5665 5666 5666 5666 5666 5667 5665 5665 5664 5664 5663 5662 5658 5653 5648 5648 5648 5649 5649 5651 5652 5652 5651 5648 5647 5647 5648 5649 5651 5653 5654 5657 5658
5651 5654 5655 5656 5657 5658 5658 5658 5658 5657 5657 5657 5658 5658 5658 5657 5656 5655 5654 5653 5652 5649 5647 5643 5640 5638 5639 5640 5642 5643 5642 5643 5644 5644 5641 5640 5639 5640 5641 5643 5644 5646 5648
5638 5642 5645 5647 5649 5650 5651 5650 5649 5649 5649 5648 5648 5648 5648 5647 5646 5645 5645 5642 5641 5638 5636 5634 5632 5632 5632 5633 5636 5638 5636 5636 5636 5638 5638 5638 5638 5638 5637 5635 5635 5636 5638
5622 5627 5631 5635 5638 5642 5639 5636 5637 5640 5640 5639 5637 5636 5636 5635 5633 5633 5632 5631 5631 5630 5629 5628 5628 5627 5626 5628 5630 5632 5632 5633 5630 5631 5633 5632 5634 5632 5630 5628 5626 5628 5629
5603 5609 5616 5621 5626 5628 5626 5625 5625 5630 5632 5630 5628 5626 5626 5623 5623 5622 5620 5619 5619 5619 5621 5624 5621 5621 5619 5621 5623 5624 5625 5626 5623 5624 5627 5626 5626 5624 5622 5617 5618 5620 5621
5584 5591 5598 5606 5612 5616 5615 5615 5616 5621 5623 5621 5619 5617 5615 5613 5613 5612 5611 5610 5609 5608 5611 5613 5611 5611 5611 5613 5615 5616 5615 5614 5615 5617 5621 5620 5620 5619 5619 5615 5612 5613 5614
5565 5573 5581 5589 5596 5602 5603 5604 5605 5613 5613 5611 5610 5608 5606 5604 5601 5603 5603 5602 5599 5597 5596 5597 5599 5599 5599 5602 5606 5611 5612 5614 5613 5612 5615 5616 5616 5616 5615 5614 5610 5609 5609
5547 5556 5565 5573 5582 5589 5592 5593 5595 5606 5605 5603 5600 5598 5597 5596 5592 5595 5597 5595 5593 5591 5592 5591 5590 5591 5594 5596 5600 5606 5611 5612 5611 5608 5606 5611 5612 5613 5610 5609 5608 5607 5606